Starlink 32686

operational
NORAD ID: 62192 Int'l Des: 2024-229 Owner: SPXS Country: US Constellation: starlink
LEOCIRCULAR

Starlink 32686について

説明を読み込み中...

リアルタイム位置

3D地球を読み込み中...

次回通過

高度履歴

Altitude vs Time

uPlot chart will show altitude changes over time

軌道要素

1 62192U 24229A 25303.24574129 .00049864 00000-0 18082-2 0 9998
2 62192 43.0011 283.7708 0000719 270.7329 89.3440 15.27600111 50651
Epoch: Oct 30, 2025 • Age: 14 hours

現在のステータス

高度 486.8 km
速度 7.62 km/s
衛星直下点 -19.35°S, 79.32°W
打ち上げ日 Dec 4, 2024
運用期間 0.9 years
タイプ internet

技術仕様

分類 Payload
質量 730.00 kg
乾燥質量 700.00 kg
総質量 730.00 kg
長さ 0.30 m
直径 4.10 m
スパン 29.00 m
形状 Box + pan
製造者 SPXS
バスタイプ Starlink V2M
フェーズステータス In Orbit
所有者/国 SPXS/US

大規模コンステレーション

Loading constellations...